Latest Coastal Weather Observations for Spring Bay

IDT60701

Issued at 6:51 am EST Friday 28 August 2015 (issued every 10 minutes, with the page automatically refreshed every 10 minutes)

About coastal observations | Map of coastal stations | Coastal observations for TAS | Marine services | Other Formats
Station Details ID: 092133 Name: SPRING BAY NTC AWS Lat: -42.55 Lon: 147.93 Height: 0.0 m
Data from the previous 72 hours. | See also: Recent months for locations in Tasmania
Date/Time
EST
Temp

°C
Wind Pressure Rain
since 9am
mm
Weather Cloud Vis
km
Sea
Height
m
Swell
Dir
 
Speed
knots
Gust
knots
hPa Trend Height
m
Period
s
Dir
28/06:30am 7.9 - - - 1024.4 - - - - - - - - -
28/06:00am 8.0 - - - 1024.1 - - - - - - - - -
28/05:30am 8.1 - - - 1023.8 - - - - - - - - -
28/05:00am 8.1 - - - 1023.4 - - - - - - - - -
28/04:30am 8.3 - - - 1023.1 - - - - - - - - -
28/04:00am 8.3 - - - 1022.8 - - - - - - - - -
28/03:30am 8.1 - - - 1022.6 - - - - - - - - -
28/03:00am 8.2 - - - 1022.5 - - - - - - - - -
28/02:30am 8.3 - - - 1022.4 - - - - - - - - -
28/02:00am 9.1 - - - 1022.2 - - - - - - - - -
28/01:30am 8.7 - - - 1022.0 - - - - - - - - -
28/01:00am 9.0 - - - 1022.0 - - - - - - - - -
28/12:30am 9.1 - - - 1022.1 - - - - - - - - -
28/12:00am 9.7 - - - 1022.2 - - - - - - - - -
 
Date/Time
EST
Temp

°C
Wind Pressure Rain
since 9am
mm
Weather Cloud Vis
km
Sea
Height
m
Swell
Dir
 
Speed
knots
Gust
knots
hPa Trend Height
m
Period
s
Dir
27/11:30pm 9.8 - - - 1022.4 - - - - - - - - -
27/11:00pm 10.2 - - - 1022.5 - - - - - - - - -
27/10:30pm 10.3 - - - 1022.6 - - - - - - - - -
27/10:00pm 10.4 - - - 1022.6 - - - - - - - - -
27/09:30pm 10.3 - - - 1022.7 - - - - - - - - -
27/09:00pm 10.4 - - - 1022.6 - - - - - - - - -
27/08:30pm 10.7 - - - 1022.5 - - - - - - - - -
27/08:00pm 10.8 - - - 1022.5 - - - - - - - - -
27/07:30pm 10.8 - - - 1022.4 - - - - - - - - -
27/07:00pm 10.8 - - - 1022.1 - - - - - - - - -
27/06:30pm 10.9 - - - 1021.8 - - - - - - - - -
27/06:00pm 10.7 - - - 1021.5 - - - - - - - - -
27/05:30pm 10.8 - - - 1021.2 - - - - - - - - -
27/05:00pm 10.7 - - - 1021.0 - - - - - - - - -
27/04:30pm 11.3 - - - 1020.9 - - - - - - - - -
27/04:00pm 11.3 - - - 1020.9 - - - - - - - - -
27/03:30pm 11.4 - - - 1020.9 - - - - - - - - -
27/03:00pm 11.3 - - - 1021.0 - - - - - - - - -
27/02:30pm 11.3 - - - 1021.0 - - - - - - - - -
27/02:00pm 11.5 - - - 1021.0 - - - - - - - - -
27/01:30pm 11.4 - - - 1021.3 - - - - - - - - -
27/01:00pm 11.6 - - - 1021.7 - - - - - - - - -
27/12:30pm 11.1 - - - 1022.1 - - - - - - - - -
27/12:00pm 11.1 - - - 1022.5 - - - - - - - - -
27/11:30am 11.3 - - - 1022.7 - - - - - - - - -
27/11:00am 10.5 - - - 1023.0 - - - - - - - - -
27/10:30am 10.3 - - - 1023.2 - - - - - - - - -
27/10:00am 10.0 - - - 1023.4 - - - - - - - - -
27/09:30am 9.4 - - - 1023.8 - - - - - - - - -
27/09:00am 8.9 - - - 1024.0 - - - - - - - - -
27/08:30am 8.6 - - - 1024.1 - - - - - - - - -
27/08:00am 8.1 - - - 1024.1 - - - - - - - - -
27/07:30am 8.0 - - - 1023.9 - - - - - - - - -
27/07:00am 8.0 - - - 1023.6 - - - - - - - - -
27/06:30am 7.5 - - - 1023.5 - - - - - - - - -
27/06:00am 7.9 - - - 1023.5 - - - - - - - - -
27/05:30am 7.8 - - - 1023.6 - - - - - - - - -
27/05:00am 7.8 - - - 1023.7 - - - - - - - - -
27/04:30am 7.8 - - - 1023.8 - - - - - - - - -
27/04:00am 7.5 - - - 1023.9 - - - - - - - - -
27/03:30am 7.7 - - - 1024.2 - - - - - - - - -
27/03:00am 7.8 - - - 1024.7 - - - - - - - - -
27/02:30am 7.5 - - - 1025.1 - - - - - - - - -
27/02:00am 7.5 - - - 1025.4 - - - - - - - - -
27/01:30am 7.7 - - - 1025.8 - - - - - - - - -
27/01:00am 7.5 - - - 1026.1 - - - - - - - - -
27/12:30am 7.8 - - - 1026.2 - - - - - - - - -
27/12:00am 7.6 - - - 1026.4 - - - - - - - - -
 
Date/Time
EST
Temp

°C
Wind Pressure Rain
since 9am
mm
Weather Cloud Vis
km
Sea
Height
m
Swell
Dir
 
Speed
knots
Gust
knots
hPa Trend Height
m
Period
s
Dir
26/11:30pm 7.4 - - - 1026.6 - - - - - - - - -
26/11:00pm 7.2 - - - 1026.8 - - - - - - - - -
26/10:30pm 7.7 - - - 1027.1 - - - - - - - - -
26/10:00pm 7.7 - - - 1027.3 - - - - - - - - -
26/09:30pm 7.4 - - - 1027.5 - - - - - - - - -
26/09:00pm 7.3 - - - 1027.6 - - - - - - - - -
26/08:30pm 7.5 - - - 1027.6 - - - - - - - - -
26/08:00pm 7.5 - - - 1027.5 - - - - - - - - -
26/07:30pm 7.6 - - - 1027.6 - - - - - - - - -
26/07:00pm 8.7 - - - 1027.6 - - - - - - - - -
26/06:30pm 9.2 - - - 1027.5 - - - - - - - - -
26/06:00pm 9.6 - - - 1027.5 - - - - - - - - -
26/05:30pm 11.3 - - - 1027.4 - - - - - - - - -
26/05:00pm 11.7 - - - 1027.5 - - - - - - - - -
26/04:30pm 12.2 - - - 1027.4 - - - - - - - - -
26/04:00pm 12.2 - - - 1027.6 - - - - - - - - -
26/03:30pm 12.0 - - - 1027.6 - - - - - - - - -
26/03:00pm 12.3 - - - 1027.6 - - - - - - - - -
26/02:30pm 12.5 - - - 1027.8 - - - - - - - - -
26/02:00pm 12.8 - - - 1027.8 - - - - - - - - -
26/01:30pm 12.6 - - - 1028.2 - - - - - - - - -
26/01:00pm 12.6 - - - 1028.7 - - - - - - - - -
26/12:30pm 12.8 - - - 1029.2 - - - - - - - - -
26/12:00pm 12.2 - - - 1029.8 - - - - - - - - -
26/11:30am 12.3 - - - 1030.2 - - - - - - - - -
26/11:00am 12.0 - - - 1030.4 - - - - - - - - -
26/10:30am 8.9 - - - 1030.7 - - - - - - - - -
26/10:00am 8.2 - - - 1031.0 - - - - - - - - -
26/09:30am 8.3 - - - 1031.1 - - - - - - - - -
26/09:00am 7.1 - - - 1031.1 - - - - - - - - -
26/08:30am 5.1 - - - 1031.2 - - - - - - - - -
26/08:00am 3.9 - - - 1031.2 - - - - - - - - -
26/07:30am 2.9 - - - 1031.1 - - - - - - - - -
26/07:00am 2.6 - - - 1030.9 - - - - - - - - -
26/06:30am 2.7 - - - 1030.7 - - - - - - - - -
26/06:00am 2.9 - - - 1030.6 - - - - - - - - -
26/05:30am 2.9 - - - 1030.6 - - - - - - - - -
26/05:00am 3.2 - - - 1030.7 - - - - - - - - -
26/04:30am 3.3 - - - 1030.6 - - - - - - - - -
26/04:00am 3.3 - - - 1030.5 - - - - - - - - -
26/03:30am 3.0 - - - 1030.6 - - - - - - - - -
26/03:00am 3.6 - - - 1030.6 - - - - - - - - -
26/02:30am 3.2 - - - 1030.8 - - - - - - - - -
26/02:00am 3.9 - - - 1031.0 - - - - - - - - -
26/01:30am 3.8 - - - 1031.2 - - - - - - - - -
26/01:00am 3.8 - - - 1031.2 - - - - - - - - -
26/12:30am 3.9 - - - 1031.2 - - - - - - - - -
26/12:00am 4.3 - - - 1031.2 - - - - - - - - -
 
Date/Time
EST
Temp

°C
Wind Pressure Rain
since 9am
mm
Weather Cloud Vis
km
Sea
Height
m
Swell
Dir
 
Speed
knots
Gust
knots
hPa Trend Height
m
Period
s
Dir
25/11:30pm 4.0 - - - 1031.3 - - - - - - - - -
25/11:00pm 4.4 - - - 1031.2 - - - - - - - - -
25/10:30pm 5.1 - - - 1031.3 - - - - - - - - -
25/10:00pm 4.9 - - - 1031.3 - - - - - - - - -
25/09:30pm 5.0 - - - 1031.2 - - - - - - - - -
25/09:00pm 5.4 - - - 1031.1 - - - - - - - - -
25/08:30pm 5.9 - - - 1030.9 - - - - - - - - -
25/08:00pm 6.2 - - - 1030.6 - - - - - - - - -
25/07:30pm 6.7 - - - 1030.4 - - - - - - - - -
25/07:00pm 7.0 - - - 1030.1 - - - - - - - - -
25/06:30pm 8.0 - - - 1029.8 - - - - - - - - -
25/06:00pm 8.8 - - - 1029.5 - - - - - - - - -
25/05:30pm 9.3 - - - 1029.1 - - - - - - - - -
25/05:00pm 10.0 - - - 1028.8 - - - - - - - - -

Other Formats:

Comma delimited format used in spreadsheet applications
http://www.bom.gov.au/fwo/IDT60701/IDT60701.95987.axf

JavaScript Object Notation format (JSON) in row-major order
http://www.bom.gov.au/fwo/IDT60701/IDT60701.95987.json